Regional Weather Roundup
Issued by NWS

Home | Current Version | Previous Version | Graphics & Text | Print | Product List | Glossary On
Versions: 1 2 3 4 5 6 7 8 9 10 11 12 13 14 15 16 17 18 19 20 21 22 23 24 25 26 27 28 29 30 31 32 33 34 35 36 37 38 39 40 41 42 43 44 45 46 47 48 49 50
000
ASUS43 KMKX 290311
RWRWI

WISCONSIN REGIONAL WEATHER ROUNDUP
NATIONAL WEATHER SERVICE MILWAUKEE/SULLIVAN WI
1000 PM CDT MON JUL 28 2014

NOTE: "FAIR" INDICATES FEW OR NO CLOUDS BELOW 12,000 FEET WITH NO
SIGNIFICANT WEATHER AND/OR OBSTRUCTIONS TO VISIBILITY.

WIZ001-002-006>008-014>016-023>028-290400-
NORTHWEST WISCONSIN

CITY           SKY/WX    TMP DP  RH WIND       PRES   REMARKS
SUPERIOR ARPT  PTCLDY    63  56  80 NW6       30.09S
ASHLAND        PTCLDY    58  57  97 CALM      30.08R
HAYWARD        MOCLDY    64  54  69 CALM      30.11R
SIREN          CLEAR     61  55  80 W3        30.13R
RICE LAKE      CLEAR     61  55  80 CALM      30.13S
LADYSMITH      MOCLDY    64  56  77 W7        30.12S
EAU CLAIRE     CLEAR     63  55  75 CALM      30.10S
MENOMONIE      CLEAR     64  55  73 W3        30.12R
NEW RICHMOND   CLEAR     61  55  80 CALM      30.14R
OSCEOLA        CLEAR     59  58  97 CALM      30.16R
$$

WIZ003>005-009-010-017-018-290400-
NORTH CENTRAL WISCONSIN

CITY           SKY/WX    TMP DP  RH WIND       PRES   REMARKS
WOODRUFF       MOCLDY    58  54  84 W3        30.08F
RHINELANDER    MOCLDY    59  57  93 W6        30.09S
EAGLE RIVER    PTCLDY    56  56 100 CALM      30.07S
LAND O LAKES   PTCLDY    58  56  91 W3        30.08S
PHILLIPS       MOCLDY    62  55  80 CALM      30.09S
TOMAHAWK       LGT RAIN  59  55  87 CALM      30.11R
MEDFORD        MOCLDY    59  55  87 W5        30.10S
MERRILL        CLOUDY    62  57  84 W5        30.08S
$$

WIZ029-030-035-036-043>047-290400-
CENTRAL WISCONSIN

CITY           SKY/WX    TMP DP  RH WIND       PRES   REMARKS
WAUSAU         PTCLDY    62  56  80 NW5       30.07S
MOSINEE        PTCLDY    61  55  82 W5        30.10S
MARSHFIELD     MOCLDY    62  54  74 NW5       30.09S
STEVENS POINT  CLOUDY    64  53  69 W3        30.09R
WAUPACA        CLOUDY    67  54  61 W3        30.06S
WAUTOMA        MOCLDY    66  54  65 CALM      30.08S
WISC RAPIDS    CLOUDY    64  56  75 NW6       30.10R
CAMP DOUGLAS   MOCLDY    55  55 100 W7        30.09S
$$

WIZ011>013-019>022-031-037>040-048>050-290400-
NORTHEAST WISCONSIN

CITY           SKY/WX    TMP DP  RH WIND       PRES   REMARKS
ANTIGO         LGT RAIN  59  55  87 NW6       30.08S
STURGEON BAY   CLOUDY    57  48  72 SW5       30.03S
GREEN BAY      CLOUDY    62  56  80 W5        30.04S
MANITOWOC      CLEAR     57  50  77 CALM      30.04F
APPLETON       MOCLDY    63  54  72 W6        30.05F
CLINTONVILLE   CLOUDY    63  54  72 W3        30.05S
OSHKOSH        PTCLDY    64  54  69 W5        30.05S
$$

WIZ032>034-041-042-053>061-290400-
SOUTHWEST WISCONSIN

CITY           SKY/WX    TMP DP  RH WIND       PRES   REMARKS
LA CROSSE      CLEAR     64  56  75 CALM      30.11R
SPARTA         CLEAR     56  54  91 CALM      30.12S
VIROQUA        FAIR      59  54  83 W5        30.13S
BOSCOBEL       CLEAR     58  55  90 CALM      30.12R
PRAIRIE DU CHI CLEAR     59  54  82 CALM      30.12S
PLATTEVILLE    FAIR      61  53  74 NW5       30.13S
$$

WIZ056-057-062-063-064-067-068-290400-
SOUTH CENTRAL WISCONSIN

CITY           SKY/WX    TMP DP  RH WIND       PRES   REMARKS
BARABOO/DELLS  CLOUDY    63  51  67 W3        30.09S
LONE ROCK      CLEAR     64  54  69 W5        30.10S
WATERTOWN      CLOUDY    65  55  69 W3        30.06S
MADISON        MOCLDY    65  52  62 W5        30.08S
MIDDLETON      FAIR      60  53  75 W7        30.09S
MONROE         CLEAR     63  52  67 W9        30.10S
JANESVILLE     MOCLDY    63  52  67 W6        30.08S
$$

WIZ051-052-058>065-066-070>072-290400-
SOUTHEAST WISCONSIN

CITY           SKY/WX    TMP DP  RH WIND       PRES   REMARKS
MILWAUKEE      CLOUDY    60  50  69 E7        30.07R
WAUKESHA       CLOUDY    64  52  63 CALM      30.07R
MILWAUKEE/TIMM MOCLDY    63  48  59 CALM      30.06S
RACINE         CLOUDY    60  50  69 S6        30.08R
BURLINGTON     CLOUDY    62  54  74 W6        30.06S
KENOSHA        CLOUDY    60  51  72 S3        30.07R
FOND DU LAC    PTCLDY    63  52  67 W6        30.06S
SHEBOYGAN      CLEAR     55  52  89 SW3       30.05S
WEST BEND      CLEAR     59  54  82 CALM      30.06R
JUNEAU         PTCLDY    63  51  66 CALM      30.07S
$$

LSZ147-162-290400-
LAKE SUPERIOR

STATION/POSITION TIME  TEMP    WIND        PRES    WAVE
                       AIR SEA DIR/SP/G            HT/PER
                 (UTC) (F)     (DEG/KT/KT) (MB)    (FT/S)
W MID LAKE BUOY  0250   56 44  350/ 10/ 14 1017.4F   0
PORT WING        0200   66     270/  8/ 12 1018.3R
SAXON HARBOR     0200          200/  3/  6 1018.3R
$$

LMZ867-665-643>646-290400-
LAKE MICHIGAN

STATION/POSITION TIME  TEMP    WIND        PRES    WAVE
                       AIR SEA DIR/SP/G            HT/PER
                 (UTC) (F)     (DEG/KT/KT) (MB)    (FT/S)
N MID LAKE BUOY  0250   56 54  230/  8/  8 1015.4F   1/ 3
NORTHPORT PIER   0200   62     230/  2/  5 1015.9S
SISTER BAY       0210   63        CALM       N/A
ALGOMA LAKESHORE 0221             CALM       N/A
KEWAUNEE LAKESHO 0200   54     290/  2/  2 1017.8R
SHEBOYGAN LAKESH 0300   60     180/  6/  7 1017.8S
PORT WASHINGTON  0200   61     190/  3/  4 1018.3S
ATWATER BUOY     0300   61     150/  8     1018.9R
MILWAUKEE LAKESH 0200   61     150/  5/  5   N/A
S MID LAKE BUOY  0250   59 60  360/  2/  4 1018.0R   3/ 6
KENOSHA   LAKESH 0300   61     160/  4/  6 1017.9S
$$

TC  - TEMPERATURE IN CELSIUS
VSB - VISIBILITY IN STATUTE MILES
WCI - WIND CHILL INDEX
HX  - HEAT INDEX



USA.gov is the U.S. government's official web portal to all federal, state and local government web resources and services.